Погода в Мегри

Армения     38°54′09″N   46°14′44″E
темп.,
°C
ветер,
м/с
пор.,
м/с
влажн.,
%
обл.,
%
осадки,
мм/ч
давл.,
гПа
погр.,
м
23 мая, пн
пн2301:00+13зсз444919 0.0 100734
04:00+13з334613 0.0 100521
07:00+15з2251100 0.0 100418
10:00+15зсз125716 1.2 1003136
13:00+19ююз494495 0.1 10002155
16:00+20ююз7143941 0.3 9962389
19:00+16ююз465022 0.1 996185
22:00+8зсз347749 1.6 1003109
24 мая, вт
вт2401:00+8зюз227830 0.1 100353
04:00+8зюз337916 0.1 100458
07:00+10зюз23743 0.0 1005152
10:00+14ююз34568 0.3 10051094
13:00+16юз264616 1.0 10051893
16:00+13в347098 3.3 1006839
19:00+9вюв229189 3.1 1009277
22:00+8вюв129680 4.6 1011189
25 мая, ср
ср2501:00+7ююв229994 0.8 1012157
04:00+6юз229351 1.8 1013152
07:00+7ююв118526 0.1 1015253
10:00+7в328693 0.7 1017553
13:00+8вюв328160 0.4 1017633
16:00+8вюв338260 1.2 1017565
19:00+7в338776 0.4 1019397
22:00+6всв339096 0.4 1022283
26 мая, чт
чт2601:00+5всв229075 0.0 1022155
04:00+5св228832 0.0 1022101
07:00+6всв228218 0.0 1022205
10:00+10вюв326738 0.0 1021932
13:00+11вюв326669 0.1 10211130
16:00+12в326840 0.3 1020886
19:00+10в337743 0.0 1021550
22:00+8св238549 0.1 1023136
27 мая, пт
пт2701:00+6ссв32875 0.0 102332
04:00+5ссв33868 0.0 102329
07:00+8св22780 0.0 1023154
10:00+12в33674 0.0 1021728
13:00+15вюв43588 0.0 10191071
16:00+15в436132 0.1 1018957
19:00+12всв337528 0.0 1019531
22:00+9ссв338812 0.0 102179